Location: Bergnerzell
(49.1816°N, 10.2565°E)
Time: 03:37:33
(UTC+00:00)

ADEOS II - Pass Details

Date: 23 May 2024
Orbit: 796 x 798 km, 98.7° (Epoch: 19 June)

Event Time Altitude Azimuth Distance (km) Brightness Sun altitude
Rises 01:12:19 0° 19° (NNE) 3,313 7.1 -15.5°
Reaches altitude 10° 01:14:46 10° 26° (NNE) 2,378 5.9 -15.3°
Maximum altitude 01:19:48 44° 99° (E) 1,088 2.9 -14.9°
Enters shadow 01:24:19 12° 169° (S) 2,195 3.9 -14.5°
